When you browse on this site, cookies collect data to enhance your experience and personalize the content and advertising you see.
Visit our Privacy Policy to learn more. By continuing to use the site, you agree to this use of cookies and data.
  • In Österreich
  • Länderverzeichnis
  • Für 7 Tage
  • Wassertemperatur
  • Satellitenkarten
  • Wetterkarte
  • News
  • Widgets
  • user-avatar
    Anmelden

    Stündliche Wetter Rohali

    Heute, 24 April, Mittwoch

    Zeit Temperatur Niederschläge Wind Luftdruck Luftfeuchtigkeit
    00:00 +9°C° 0 mm 5 m/S 748 mmHg 59%
    01:00 +8°C° 0 mm 6 m/S 748 mmHg 57%
    02:00 +9°C° 0 mm 5 m/S 748 mmHg 55%
    03:00 +9°C° 0 mm 5 m/S 748 mmHg 54%
    04:00 +9°C° 0 mm 5 m/S 748 mmHg 54%
    05:00 +9°C° 0 mm 5 m/S 748 mmHg 53%
    06:00 +9°C° 0 mm 6 m/S 748 mmHg 53%
    07:00 +10°C° 0 mm 7 m/S 748 mmHg 54%
    08:00 +10°C° 0 mm 8 m/S 748 mmHg 58%
    09:00 +11°C° 0 mm 8 m/S 748 mmHg 56%
    10:00 +12°C° 0 mm 8 m/S 748 mmHg 54%
    11:00 +13°C° 0 mm 8 m/S 748 mmHg 51%
    12:00 +15°C° 0 mm 8 m/S 748 mmHg 51%
    13:00 +16°C° 0 mm 8 m/S 748 mmHg 51%
    14:00 +17°C° 0 mm 8 m/S 748 mmHg 50%
    15:00 +17°C° 0 mm 7 m/S 748 mmHg 52%
    16:00 +17°C° 0 mm 7 m/S 748 mmHg 54%
    17:00 +17°C° 0 mm 7 m/S 747 mmHg 55%
    18:00 +15°C° 0 mm 6 m/S 747 mmHg 59%
    19:00 +14°C° 0 mm 5 m/S 747 mmHg 62%
    20:00 +12°C° 0 mm 5 m/S 747 mmHg 66%
    21:00 +12°C° 0 mm 5 m/S 747 mmHg 66%
    22:00 +10°C° 0 mm 5 m/S 747 mmHg 66%
    23:00 +10°C° 0 mm 5 m/S 747 mmHg 66%

    Morgen, 25 April, Donnerstag

    Zeit Temperatur Niederschläge Wind Luftdruck Luftfeuchtigkeit
    00:00 +11°C° 0 mm 4 m/S 747 mmHg 67%
    01:00 +10°C° 0 mm 4 m/S 747 mmHg 69%
    02:00 +10°C° 0 mm 4 m/S 747 mmHg 70%
    03:00 +8°C° 0 mm 4 m/S 747 mmHg 72%
    04:00 +8°C° 0 mm 4 m/S 747 mmHg 74%
    05:00 +8°C° 0 mm 4 m/S 747 mmHg 75%
    06:00 +10°C° 0 mm 4 m/S 747 mmHg 74%
    07:00 +11°C° 0 mm 4 m/S 747 mmHg 72%
    08:00 +13°C° 0 mm 4 m/S 747 mmHg 70%
    09:00 +15°C° 0 mm 5 m/S 747 mmHg 66%
    10:00 +16°C° 0 mm 5 m/S 747 mmHg 63%
    11:00 +19°C° 0 mm 5 m/S 747 mmHg 59%
    12:00 +19°C° 0 mm 5 m/S 747 mmHg 60%
    13:00 +20°C° 0 mm 5 m/S 747 mmHg 61%
    14:00 +20°C° 0 mm 5 m/S 746 mmHg 62%
    15:00 +20°C° 0 mm 5 m/S 746 mmHg 61%
    16:00 +20°C° 0 mm 5 m/S 746 mmHg 61%
    17:00 +20°C° 0 mm 5 m/S 745 mmHg 60%
    18:00 +19°C° 0.1 mm 5 m/S 745 mmHg 66%
    19:00 +17°C° 0.1 mm 4 m/S 745 mmHg 72%
    20:00 +15°C° 0.1 mm 4 m/S 745 mmHg 78%
    21:00 +14°C° 0.4 mm 4 m/S 745 mmHg 82%
    22:00 +14°C° 0.4 mm 4 m/S 745 mmHg 85%
    23:00 +13°C° 0.4 mm 4 m/S 745 mmHg 88%

    übermorgen, 26 April, Freitag

    Zeit Temperatur Niederschläge Wind Luftdruck Luftfeuchtigkeit
    00:00 +13°C° 0 mm 4 m/S 745 mmHg 89%
    01:00 +12°C° 0 mm 4 m/S 745 mmHg 90%
    02:00 +12°C° 0 mm 3 m/S 745 mmHg 91%
    03:00 +12°C° 0 mm 3 m/S 744 mmHg 90%
    04:00 +12°C° 0 mm 3 m/S 744 mmHg 90%
    05:00 +12°C° 0 mm 4 m/S 744 mmHg 90%
    06:00 +13°C° 0 mm 4 m/S 744 mmHg 84%
    07:00 +15°C° 0 mm 4 m/S 744 mmHg 79%
    08:00 +16°C° 0 mm 5 m/S 744 mmHg 74%
    09:00 +19°C° 0.1 mm 5 m/S 743 mmHg 68%
    10:00 +21°C° 0.1 mm 5 m/S 743 mmHg 63%
    11:00 +23°C° 0.1 mm 6 m/S 743 mmHg 58%
    12:00 +24°C° 0.2 mm 6 m/S 743 mmHg 55%
    13:00 +24°C° 0.2 mm 7 m/S 742 mmHg 52%
    14:00 +26°C° 0.2 mm 7 m/S 742 mmHg 49%
    15:00 +26°C° 0.1 mm 6 m/S 742 mmHg 51%
    16:00 +25°C° 0.1 mm 5 m/S 741 mmHg 54%
    17:00 +25°C° 0.1 mm 4 m/S 741 mmHg 57%
    18:00 +22°C° 0.1 mm 4 m/S 741 mmHg 61%
    19:00 +21°C° 0.1 mm 4 m/S 741 mmHg 65%
    20:00 +19°C° 0.1 mm 4 m/S 741 mmHg 69%
    21:00 +18°C° 0.6 mm 4 m/S 741 mmHg 74%
    22:00 +17°C° 0.6 mm 4 m/S 740 mmHg 80%
    23:00 +17°C° 0.6 mm 4 m/S 740 mmHg 85%

    27 April, Samstag

    Zeit Temperatur Niederschläge Wind Luftdruck Luftfeuchtigkeit
    00:00 +15°C° 0 mm 4 m/S 740 mmHg 86%
    01:00 +15°C° 0 mm 4 m/S 740 mmHg 86%
    02:00 +14°C° 0 mm 3 m/S 740 mmHg 87%
    03:00 +14°C° 0.1 mm 3 m/S 740 mmHg 88%
    04:00 +13°C° 0.1 mm 3 m/S 740 mmHg 89%
    05:00 +13°C° 0.1 mm 3 m/S 740 mmHg 90%
    06:00 +16°C° 0 mm 3 m/S 740 mmHg 85%
    07:00 +17°C° 0 mm 3 m/S 740 mmHg 79%
    08:00 +19°C° 0 mm 3 m/S 740 mmHg 74%
    09:00 +20°C° 0 mm 3 m/S 740 mmHg 68%
    10:00 +22°C° 0 mm 3 m/S 740 mmHg 62%
    11:00 +24°C° 0 mm 3 m/S 740 mmHg 56%
    12:00 +25°C° 0.1 mm 3 m/S 740 mmHg 54%
    13:00 +25°C° 0.1 mm 3 m/S 740 mmHg 52%
    14:00 +26°C° 0.1 mm 3 m/S 739 mmHg 49%
    15:00 +24°C° 0.4 mm 3 m/S 739 mmHg 57%
    16:00 +22°C° 0.4 mm 3 m/S 739 mmHg 65%
    17:00 +20°C° 0.4 mm 3 m/S 738 mmHg 73%
    18:00 +19°C° 5.6 mm 3 m/S 738 mmHg 80%
    19:00 +17°C° 5.6 mm 3 m/S 738 mmHg 86%
    20:00 +16°C° 5.6 mm 2 m/S 738 mmHg 93%
    21:00 +16°C° 1.8 mm 2 m/S 738 mmHg 92%
    22:00 +16°C° 1.8 mm 2 m/S 738 mmHg 91%
    23:00 +16°C° 1.8 mm 1 m/S 739 mmHg 90%

    28 April, Sonntag

    Zeit Temperatur Niederschläge Wind Luftdruck Luftfeuchtigkeit
    00:00 +15°C° 0 mm 1 m/S 738 mmHg 90%
    01:00 +15°C° 0 mm 1 m/S 738 mmHg 91%
    02:00 +14°C° 0 mm 1 m/S 738 mmHg 91%
    03:00 +14°C° 0 mm 1 m/S 738 mmHg 92%
    04:00 +14°C° 0 mm 1 m/S 738 mmHg 93%
    05:00 +14°C° 0 mm 2 m/S 738 mmHg 94%
    06:00 +15°C° 0 mm 2 m/S 738 mmHg 93%
    07:00 +15°C° 0 mm 2 m/S 739 mmHg 92%
    08:00 +15°C° 0 mm 2 m/S 739 mmHg 91%
    09:00 +16°C° 0.2 mm 2 m/S 739 mmHg 87%
    10:00 +17°C° 0.2 mm 3 m/S 739 mmHg 84%
    11:00 +18°C° 0.2 mm 3 m/S 739 mmHg 81%
    12:00 +19°C° 0.9 mm 2 m/S 739 mmHg 77%
    13:00 +19°C° 0.9 mm 2 m/S 739 mmHg 73%
    14:00 +20°C° 0.9 mm 2 m/S 739 mmHg 69%
    15:00 +19°C° 0.6 mm 3 m/S 739 mmHg 72%
    16:00 +19°C° 0.6 mm 4 m/S 739 mmHg 76%
    17:00 +18°C° 0.6 mm 4 m/S 739 mmHg 79%
    18:00 +17°C° 0.2 mm 4 m/S 739 mmHg 84%
    19:00 +16°C° 0.2 mm 3 m/S 739 mmHg 88%
    20:00 +13°C° 0.2 mm 3 m/S 739 mmHg 92%
    21:00 +13°C° 0 mm 3 m/S 739 mmHg 94%
    22:00 +13°C° 0 mm 2 m/S 739 mmHg 95%
    23:00 +13°C° 0 mm 2 m/S 739 mmHg 96%

    29 April, Montag

    Zeit Temperatur Niederschläge Wind Luftdruck Luftfeuchtigkeit
    00:00 +12°C° 0 mm 2 m/S 739 mmHg 97%
    01:00 +12°C° 0 mm 2 m/S 739 mmHg 97%
    02:00 +12°C° 0 mm 2 m/S 739 mmHg 98%
    03:00 +12°C° 0 mm 2 m/S 739 mmHg 97%
    04:00 +12°C° 0 mm 2 m/S 739 mmHg 97%
    05:00 +12°C° 0 mm 2 m/S 739 mmHg 96%
    06:00 +13°C° 0 mm 1 m/S 739 mmHg 94%
    07:00 +13°C° 0 mm 1 m/S 740 mmHg 92%
    08:00 +13°C° 0 mm 0 m/S 740 mmHg 89%
    09:00 +14°C° 0 mm 1 m/S 740 mmHg 87%
    10:00 +15°C° 0 mm 1 m/S 740 mmHg 85%
    11:00 +15°C° 0 mm 2 m/S 741 mmHg 83%
    12:00 +16°C° 0.3 mm 2 m/S 741 mmHg 81%
    13:00 +17°C° 0.3 mm 3 m/S 741 mmHg 79%
    14:00 +17°C° 0.3 mm 4 m/S 741 mmHg 77%
    15:00 +15°C° 0.3 mm 5 m/S 741 mmHg 79%
    16:00 +14°C° 0.3 mm 6 m/S 741 mmHg 82%
    17:00 +12°C° 0.3 mm 7 m/S 741 mmHg 85%
    18:00 +11°C° 0 mm 6 m/S 741 mmHg 86%
    19:00 +10°C° 0 mm 6 m/S 741 mmHg 87%
    20:00 +9°C° 0 mm 5 m/S 742 mmHg 88%
    21:00 +9°C° 0 mm 5 m/S 742 mmHg 88%
    22:00 +9°C° 0 mm 5 m/S 742 mmHg 88%
    23:00 +9°C° 0 mm 5 m/S 742 mmHg 88%
    Mehr zeigen